K3GM Weather Reports


time (UTC)temp
C
wind
direction
speed
KPH
gust
KPH
rain 1hr
cm
rain 24hr
cm
rain mn
cm
humidity
%
barometer
mb
20260506024537 20 0 1.6 11.3 0.00 0.00 0.00 64 1011.3
20260506023034 21 169 1.6 12.9 0.00 0.00 0.00 62 1011.4
20260506021539 21 178 3.2 12.9 0.00 0.00 0.00 61 1011.3
20260506020036 21 0 0.0 12.9 0.00 0.00 0.00 60 1011.4
20260506014535 21 198 3.2 20.9 0.00 0.00 0.00 59 1011.2
20260506013039 21 0 1.6 25.7 0.00 0.00 0.00 60 1011.1
20260506011558 21 148 1.6 17.7 0.00 0.00 0.00 60 1011.1
20260506010030 21 173 4.8 14.5 0.00 0.00 0.00 59 1010.9
20260506004543 22 157 4.8 20.9 0.00 0.00 0.00 50 1010.9
20260506003035 22 168 0.0 24.1 0.00 0.00 0.00 53 1010.6
20260506001535 23 150 1.6 20.9 0.00 0.00 0.00 49 1010.2
20260506000039 24 153 0.0 14.5 0.00 0.00 0.00 40 1010.2
20260505234535 24 148 3.2 9.7 0.00 0.00 0.00 43 1010.2
20260505233036 25 173 1.6 11.3 0.00 0.00 0.00 43 1010.0
20260505231541 25 168 1.6 11.3 0.00 0.00 0.00 43 1009.8
20260505230035 25 185 3.2 9.7 0.00 0.00 0.00 34 1009.8
20260505224533 25 0 3.2 14.5 0.00 0.00 0.00 41 1009.6
20260505223036 26 200 3.2 12.9 0.00 0.00 0.00 41 1009.6
20260505221534 26 173 4.8 11.3 0.00 0.00 0.00 39 1009.4
20260505220048 26 193 6.4 16.1 0.00 0.00 0.00 30 1009.4
20260505214534 26 199 1.6 11.3 0.00 0.00 0.00 37 1009.5
20260505213038 27 0 1.6 11.3 0.00 0.00 0.00 34 1009.3
20260505211539 27 206 4.8 12.9 0.00 0.00 0.00 26 1009.2
20260505210044 27 207 4.8 11.3 0.00 0.00 0.00 27 1009.2
20260505204537 27 206 3.2 12.9 0.00 0.00 0.00 32 1009.1
20260505203033 27 205 1.6 16.1 0.00 0.00 0.00 33 1009.2
20260505201540 27 209 1.6 11.3 0.00 0.00 0.00 25 1009.0
20260505200036 28 211 1.6 17.7 0.00 0.00 0.00 27 1009.1
20260505194535 28 188 3.2 14.5 0.00 0.00 0.00 35 1009.3
20260505193040 28 199 1.6 12.9 0.00 0.00 0.00 31 1009.3
20260505191534 28 200 3.2 12.9 0.00 0.00 0.00 37 1009.4
20260505190032 28 204 4.8 14.5 0.00 0.00 0.00 29 1009.7
20260505184536 28 214 1.6 19.3 0.00 0.00 0.00 35 1009.7
20260505183047 28 192 1.6 12.9 0.00 0.00 0.00 40 1009.9
20260505181535 28 190 3.2 12.9 0.00 0.00 0.00 35 1010.0
20260505180034 27 190 1.6 9.7 0.00 0.00 0.00 33 1010.3
20260505174536 28 187 0.0 6.4 0.00 0.00 0.00 35 1010.5
20260505173033 27 221 0.0 9.7 0.00 0.00 0.00 38 1010.7
20260505171533 27 56 0.0 8.0 0.00 0.00 0.00 36 1010.8
20260505170032 27 185 1.6 6.4 0.00 0.00 0.00 36 1011.0
20260505164552 27 0 0.0 12.9 0.00 0.00 0.00 37 1011.0
20260505163037 26 178 0.0 12.9 0.00 0.00 0.00 44 1011.2
20260505161544 26 0 0.0 8.0 0.00 0.00 0.00 42 1011.2
20260505153035 25 0 0.0 8.0 0.00 0.00 0.00 40 1012.0
20260505151534 24 0 0.0 8.0 0.00 0.00 0.00 43 1011.7
20260505124545 19 0 0.0 4.8 0.00 0.00 0.00 62 1012.0
20260505123034 18 0 0.0 3.2 0.00 0.00 0.00 63 1011.9
20260505121535 18 0 0.0 3.2 0.00 0.00 0.00 59 1012.0
20260505120047 17 0 0.0 4.8 0.00 0.00 0.00 62 1012.1
20260505114536 17 0 0.0 3.2 0.00 0.00 0.00 72 1012.0
20260505113035 16 0 0.0 1.6 0.00 0.00 0.00 74 1011.8
20260505111530 16 0 0.0 0.0 0.00 0.00 0.00 75 1011.9
20260505101532 16 0 0.0 3.2 0.00 0.00 0.00 74 1011.3
20260505100033 16 0 0.0 6.4 0.00 0.00 0.00 73 1011.1
20260505094535 16 160 0.0 3.2 0.00 0.00 0.00 74 1011.1
20260505093035 15 0 0.0 1.6 0.00 0.00 0.00 77 1010.9
20260505091535 15 0 0.0 0.0 0.00 0.00 0.00 77 1011.1
20260505090035 15 0 0.0 0.0 0.00 0.00 0.00 78 1010.9
20260505084544 14 0 0.0 1.6 0.00 0.00 0.00 80 1010.6
20260505083042 15 0 0.0 3.2 0.00 0.00 0.00 78 1010.8
20260505081538 15 0 0.0 0.0 0.00 0.00 0.00 76 1010.9
20260505080033 15 0 0.0 0.0 0.00 0.00 0.00 76 1011.0
20260505074535 15 0 0.0 0.0 0.00 0.00 0.00 76 1011.1
20260505073034 15 0 0.0 0.0 0.00 0.00 0.00 77 1011.0
20260505071536 14 0 0.0 0.0 0.00 0.00 0.00 77 1011.0
20260505070044 14 0 0.0 0.0 0.00 0.00 0.00 77 1011.1
20260505064536 14 0 0.0 1.6 0.00 0.00 0.00 77 1011.0
20260505063035 14 0 0.0 0.0 0.00 0.00 0.00 75 1010.9
20260505061534 14 0 0.0 0.0 0.00 0.00 0.00 74 1011.0
20260505060039 15 0 0.0 0.0 0.00 0.00 0.00 74 1011.0
20260505054531 15 0 0.0 0.0 0.00 0.00 0.00 72 1011.2
20260505053101 15 0 0.0 0.0 0.00 0.00 0.00 72 1011.3
20260505051532 15 0 0.0 0.0 0.00 0.00 0.00 71 1011.3
20260505041541 16 0 0.0 4.8 0.00 0.00 0.00 65 1011.2
20260505040038 16 129 0.0 4.8 0.00 0.00 0.00 67 1011.2
20260505034536 16 0 0.0 6.4 0.00 0.00 0.00 67 1011.3
20260505033045 16 0 0.0 4.8 0.00 0.00 0.00 66 1011.3
20260505031535 16 130 1.6 11.3 0.00 0.00 0.00 65 1011.3
20260505030035 16 0 0.0 4.8 0.00 0.00 0.00 63 1011.3